Location: Killam
(52.7910°N, 111.8608°W)
Time: 16:39:34
(UTC+00:00)

Injun/Solrad 3 - Pass Details

Date: 25 February 2026
Orbit: 872 x 984 km, 66.8° (Epoch: 8 March)

Event Time Altitude Azimuth Distance (km) Brightness Sun altitude
Rises 02:12:51 0° 318° (NW) 3,576 11.6 -12.1°
Reaches altitude 10° 02:15:27 10° 313° (NW) 2,647 11.0 -12.5°
Maximum altitude 02:21:16 45° 243° (WSW) 1,273 9.1 -13.4°
Drops below altitude 10° 02:27:12 10° 172° (S) 2,701 10.2 -14.3°
Sets 02:29:52 0° 167° (SSE) 3,656 10.8 -14.7°
